Weather History for KGRI - April, 2014

Change the Weather History Date:

Tuesday, April 15, 2014

  Actual Average Record
Temperature  
Mean Temperature 44 °F 50 °F  
Max Temperature 64 °F 63 °F 94 °F (2002)
Min Temperature 24 °F 38 °F 15 °F (1905)
Degree Days  
Heating Degree Days 21 15  
Month to date heating degree days 257 260  
Since 1 July heating degree days 5946 5817  
Cooling Degree Days 0 0  
Month to date cooling degree days 1 0  
Year to date cooling degree days 1 0  
Moisture  
Dew Point 25 °F    
Average Humidity 55    
Maximum Humidity 88    
Minimum Humidity 21    
Precipitation  
Precipitation 0.00 in 0.08 in 1.33 in (1930)
Month to date precipitation 0.96 1.09  
Year to date precipitation 1.80 4.10  
Snow  
Snow 0.00 in 0.00 in 4.00 in (1905)
Month to date snowfall 1.7 1.1  
Since 1 July snowfall 16.4 28.6  
Snow Depth 0.00 in    
Sea Level Pressure  
Sea Level Pressure 30.02 in    
Wind  
Wind Speed 14 mph (South)    
Max Wind Speed 26 mph    
Max Gust Speed 34 mph    
Visibility 10 miles    
Events      
T = Trace of Precipitation, MM = Missing Value Source: NWS Daily Summary

Daily Weather History Graph

Daily Weather History Graph

Search for Another Location

Airport or City:

Trip Planner

Search our weather history database for the weather conditions in past years. The results will help you decide how hot, cold, wet, or windy it might be!

Date:

Astronomy

Apr. 15, 2014 Rise Set
Actual Time 6:54 AM CDT 8:13 PM CDT
Civil Twilight 6:25 AM CDT 8:41 PM CDT
Nautical Twilight 5:51 AM CDT 9:15 PM CDT
Astronomical Twilight 5:15 AM CDT 9:52 PM CDT
Moon 8:56 PM CDT (4/15) 7:02 AM CDT (4/15)
Length of Visible Light 14h 15m
Length of Day
13h 18m
Full, 100% of the Moon is Illuminated
Apr 15
Full
Apr 22
Last Quarter
Apr 29
New
May 6
First Quarter
May 14
Full

Hourly Weather History & Observations

Time (CDT) Temp. Windchill Dew Point Humidity Pressure Visibility Wind Dir Wind Speed Gust Speed Precip Events Conditions
12:53 AM 28.0 °F 21.7 °F 21.0 °F 75% 30.25 in 10.0 mi North 5.8 mph - N/A   Clear
1:53 AM 28.9 °F 22.8 °F 23.0 °F 78% 30.22 in 10.0 mi ENE 5.8 mph - N/A   Clear
2:53 AM 28.9 °F - 25.0 °F 85% 30.21 in 10.0 mi Calm Calm - N/A   Clear
3:53 AM 28.0 °F 24.2 °F 24.1 °F 85% 30.20 in 10.0 mi SSW 3.5 mph - N/A   Clear
4:53 AM 27.0 °F 23.0 °F 23.0 °F 85% 30.22 in 10.0 mi SW 3.5 mph - N/A   Clear
5:53 AM 25.0 °F - 21.0 °F 85% 30.21 in 10.0 mi Calm Calm - N/A   Clear
6:53 AM 27.0 °F 21.6 °F 23.0 °F 85% 30.20 in 10.0 mi South 4.6 mph - N/A   Clear
7:53 AM 30.0 °F 23.2 °F 25.0 °F 82% 30.19 in 10.0 mi South 6.9 mph - N/A   Clear
8:53 AM 34.0 °F 25.0 °F 27.0 °F 75% 30.17 in 10.0 mi South 12.7 mph - N/A   Clear
9:53 AM 39.0 °F 31.0 °F 27.0 °F 62% 30.14 in 10.0 mi SSE 13.8 mph - N/A   Clear
10:53 AM 42.1 °F 33.9 °F 25.0 °F 51% 30.13 in 10.0 mi SSE 17.3 mph - N/A   Clear
11:53 AM 46.0 °F 39.3 °F 26.1 °F 46% 30.09 in 10.0 mi South 16.1 mph 26.5 mph N/A   Clear
12:53 PM 48.9 °F - 28.0 °F 44% 30.05 in 10.0 mi South 23.0 mph 28.8 mph N/A   Clear
1:53 PM 54.0 °F - 27.0 °F 35% 30.00 in 10.0 mi South 20.7 mph 27.6 mph N/A   Clear
2:53 PM 55.9 °F - 26.1 °F 32% 29.95 in 10.0 mi South 18.4 mph 31.1 mph N/A   Clear
3:53 PM 59.0 °F - 26.6 °F 29% 29.86 in 10.0 mi South 20.7 mph 26.5 mph N/A   Clear
4:53 PM 62.1 °F - 26.1 °F 25% 29.85 in 10.0 mi South 18.4 mph 31.1 mph N/A   Clear
5:53 PM 63.0 °F - 23.0 °F 22% 29.82 in 10.0 mi SSW 21.9 mph 29.9 mph N/A   Clear
6:53 PM 60.1 °F - 27.0 °F 28% 29.79 in 10.0 mi South 13.8 mph - N/A   Clear
7:53 PM 57.0 °F - 28.0 °F 33% 29.77 in 10.0 mi South 13.8 mph - N/A   Clear
8:53 PM 54.0 °F - 28.0 °F 37% 29.76 in 10.0 mi SSE 16.1 mph - N/A   Clear
9:53 PM 50.0 °F - 28.9 °F 44% 29.77 in 10.0 mi South 15.0 mph - N/A   Clear
10:53 PM 51.1 °F - 27.0 °F 39% 29.75 in 10.0 mi South 18.4 mph - N/A   Clear
11:53 PM 51.1 °F - 26.1 °F 38% 29.72 in 10.0 mi South 20.7 mph - N/A   Clear